Regional Weather Roundup
Issued by NWS

Home | Current Version | Previous Version | Text Only | Print | Product List | Glossary Off
Versions: 1 2 3 4 5 6 7 8 9 10 11 12 13 14 15 16 17 18 19 20 21 22 23 24 25 26 27 28 29 30 31 32 33 34 35 36 37 38 39 40 41 42 43 44 45 46 47 48 49 50

000
ASUS43 KBIS 220002
RWRND

NORTH DAKOTA REGIONAL WEATHER ROUNDUP
NATIONAL WEATHER SERVICE BISMARCK ND
600 PM CST TUE FEB 21 2017

NOTE: "FAIR" INDICATES FEW OR NO CLOUDS BELOW 12,000 FEET WITH NO
SIGNIFICANT WEATHER AND/OR OBSTRUCTIONS TO VISIBILITY.


NDZ001>003-009>011-017-220100-
NORTHWEST NORTH DAKOTA

CITY           SKY/WX    TMP DP  RH WIND       PRES   REMARKS
WILLISTON      LGT RAIN  42  32  67 W16G24    29.67R
6HR MIN TEMP:  39; 6HR MAX TEMP:  47; 6HR PCP: TRACE;

MINOT          CLOUDY    44  36  73 NW6       29.63S
MINOT AFB      MOCLDY    37  34  88 CALM      29.63R
$$

NDZ018>021-031>035-040>046-220100-
SOUTHWEST NORTH DAKOTA

CITY           SKY/WX    TMP DP  RH WIND       PRES   REMARKS
BISMARCK       FAIR      46  37  71 NE6       29.65S
6HR MIN TEMP:  46; 6HR MAX TEMP:  55;

DICKINSON      MOCLDY    46  33  60 NE7       29.63R
GARRISON         N/A     42  37  82 W8        29.64S
6HR MIN TEMP:  40; 6HR MAX TEMP:  46; 6HR PCP:  0.01;

HETTINGER ARPT MOCLDY    52  36  54 NE14      29.60F
$$

NDZ004>008-012>016-024-026-027-054-220100-
NORTHEAST NORTH DAKOTA

CITY           SKY/WX    TMP DP  RH WIND       PRES   REMARKS
GRAND FORKS    FOG       35  31  85 NW5       29.68R VSB 1/4
GRND FRKS AFB  FOG       33  33  99 NW3       29.69R VSB 1/4
DEVILS LAKE    LGT RAIN  37  33  85 S5        29.66S
$$

NDZ022-023-025-028>030-036>039-047>053-220100-
SOUTHEAST NORTH DAKOTA

CITY           SKY/WX    TMP DP  RH WIND       PRES   REMARKS
FARGO          CLOUDY    44  40  85 SW3       29.67R
6HR MIN TEMP:  43; 6HR MAX TEMP:  48;

JAMESTOWN      CLOUDY    41  37  86 N3        29.65S
$$




USA.gov is the U.S. government's official web portal to all federal, state and local government web resources and services.